Regional Weather Roundup
Issued by NWS Sterling, VA

Home | Current Version | Previous Version | Graphics & Text | Print | Product List | Glossary On
Versions: 1 2 3 4 5 6 7 8 9 10 11 12 13 14 15 16 17 18 19 20 21 22 23 24 25 26 27 28 29 30 31 32 33 34 35 36 37 38 39 40 41 42 43 44 45 46 47 48 49 50
000
ASUS41 KLWX 292210
RWRLWX

REGIONAL WEATHER ROUNDUP
NATIONAL WEATHER SERVICE BALTIMORE MD/WASHINGTON DC
500 PM EST THU JAN 29 2015

Note: "FAIR" indicates few or no clouds below 12,000 feet
with no significant weather and/or obstructions to visibility.
 TC=TEMPERATURE CELSIUS

 * =Non NWS site. Station does not report precipitation (e.g. rain,
    snow, etc.), thunder, or fog.

DCZ001-MDZ009-015-VAZ040>042-051-053>054-292300-
WASHINGTON METRO

CITY           SKY/WX    TMP DP  RH WIND       PRES   REMARKS
WASHINGTON NAT LGT RAIN  36  22  56 SE6       30.10F
DULLES         CLOUDY    32  24  72 SE7       30.07F
ANDREWS AFB    FRZ RAIN  32  23  69 SE7       30.09S
FT BELVOIR     CLOUDY    32  28  86 VRB2      30.09F
QUANTICO       CLOUDY    36  27  69 S10       30.09F WCI  28
COLLEGE PARK*  CLOUDY    34  21  60 SE5       30.10S
LEESBURG*      FLURRIES  32  28  86 SE5       30.06F
MANASSAS*      CLOUDY    34  28  80 CALM      30.07F
GAITHERSBURG*  CLOUDY    30  21  69 SE9       30.10F WCI  22

$$

MDZ006>007-011-014-292300-
BALTIMORE METRO

CITY           SKY/WX    TMP DP  RH WIND       PRES   REMARKS
BWI AIRPORT    LGTSLEET  33  19  56 SE6       30.09F
MD SCIENCE CTR   N/A     34  19  54 MISG      30.11F
MARTIN STATE   CLOUDY    36  19  51 SE12      30.12F WCI  27
ANNAPOLIS      CLOUDY    34  19  54 S9        30.11F WCI  27
FORT MEADE*    CLOUDY    32  21  64 S3        30.12F

$$

MDZ012-015-019>023-292300-
MARYLAND EASTERN SHORE

CITY           SKY/WX    TMP DP  RH WIND       PRES   REMARKS
OCEAN CITY     CLOUDY    34  24  67 SW8       30.19S WCI  27
SALISBURY      CLOUDY    37  16  42 SE9       30.15F
BAY BRIDGE AP*   N/A     34  14  44 S12       30.11F WCI  25
CAMBRIDGE*     MOCLDY    36  21  55 S9        30.12F WCI  29
EASTON*        MOCLDY    36  18  48 S8        30.15F

$$

MDZ017>025-292300-
SOUTHERN MARYLAND

CITY           SKY/WX    TMP DP  RH WIND       PRES   REMARKS
PATUXENT RIVER CLOUDY    36  23  59 S9        30.12F WCI  29
ST INIGOES     CLOUDY    36  21  54 SE8G18    30.12F
LEONARDTOWN*   CLOUDY    36  21  55 SE7       30.13S

$$

MDZ003>005-292300-
NORTH CENTRAL MARYLAND

CITY           SKY/WX    TMP DP  RH WIND       PRES   REMARKS
FREDERICK*     FLURRIES  32  19  59 S6        30.10S
HAGERSTOWN APT CLOUDY    29  23  78 SE8       30.01F WCI  21
WESTMINSTER*   LGT SNOW  28  21  74 S10G18    30.04F VSB 3/4 WCI  19

$$

MDZ501>502-292300-
WESTERN MARYLAND

CITY           SKY/WX    TMP DP  RH WIND       PRES   REMARKS
OAKLAND*       CLOUDY    32 N/A N/A S9        29.83S HAZE    WCI  24
CUMBERLAND*    CLOUDY    30  27  86 CALM      30.01F

$$

VAZ025>031-292300-
SHENANDOAH VALLEY

CITY           SKY/WX    TMP DP  RH WIND       PRES   REMARKS
WINCHESTER*    CLOUDY    34  23  64 S10       29.99F WCI  26
FRONT ROYAL*   CLOUDY    32  30  93 CALM      29.99F
LURAY*         CLOUDY    37  28  70 SW7       29.98F
NEW MARKET*    CLOUDY    37  26  63 SW9       29.98S
STAUNTON*      CLOUDY    38  25  60 SE3       30.00F
WAYNESBORO*    CLOUDY    38  25  60 S9G17     29.98S

$$

WVZ021-048>050-054>055-292300-
EASTERN WEST VIRGINIA PANHANDLE

CITY           SKY/WX    TMP DP  RH WIND       PRES   REMARKS
MARTINSBURG    CLOUDY    34  21  59 SE7       30.01F
PETERSBURG*    CLOUDY    31  23  74 CALM      29.95S

$$

VAZ036>039-050-292300-
CENTRAL FOOTHILLS

CITY           SKY/WX    TMP DP  RH WIND       PRES   REMARKS
CHARLOTTESVILL CLOUDY    39  23  52 S9        30.04F
CULPEPER*      CLOUDY    36  27  69 S3        30.06F
ORANGE*        CLOUDY    37  27  65 S5        30.06F
GORDONSVILLE*  CLOUDY    38  23  54 SW3       30.04F
WARRENTON*     CLOUDY    35  31  85 SE3       30.05F

$$

VAZ055>057-292300-
NORTH AND CENTRAL PIEDMONT

CITY           SKY/WX    TMP DP  RH WIND       PRES   REMARKS
FREDERICKSBRG* CLOUDY    38  22  51 SE8       30.07F
STAFFORD*      CLOUDY    36  22  58 CALM      30.11F

$$

NCZ024-NYZ072-PAZ021-071-VAZ022-071-292300-
OTHER REGIONAL OBSERVATIONS

CITY           SKY/WX    TMP DP  RH WIND       PRES   REMARKS
NEW YORK CITY  CLOUDY    31  20  63 VRB6      30.15F
PHILADELPHIA   CLOUDY    34  10  37 S8        30.13F WCI  27
PITTSBURGH     DRIZZLE   38  35  89 SW8       29.79R FOG
ROANOKE        CLOUDY    44  26  49 S6        30.02F
RICHMOND       CLOUDY    42  16  34 S9        30.10F
RALEIGH        CLOUDY    41  30  65 S7        30.13F

$$

ANZ530>537-292300-
MARINE OBSERVATIONS

STATION/POSITION TIME  TEMP    WIND        PRES
                       AIR SEA DIR/SP/G
                 (UTC) (F)     (DEG/KT/KT) (MB)
THOMAS PT LIGHT  2200   34 35  170/ 16/ 17 1020.6F
BALT KEY BRIDGE  2200   34     140/ 12/ 13 1019.3F
COVE POINT       2200   34     180/ 20/ 22 1019.4F
LEWISETTA        2200   38 36  160/  9/ 11 1019.7S
SOLOMONS ISLAND  2200      38                N/A
PINEY POINT      2200          160/ 14/ 16   N/A

$$




USA.gov is the U.S. government's official web portal to all federal, state and local government web resources and services.